Weather History for Newberry, MI

Change the Weather History Date:

Tuesday, August 6, 2013

  Actual Average Record
Temperature  
Mean Temperature 63 °F -  
Max Temperature 69 °F 76 °F 94 °F (1947)
Min Temperature 57 °F 53 °F 42 °F (1943)
Degree Days  
Heating Degree Days 2    
Growing Degree Days 13 (Base 50)    
Moisture  
Dew Point 61 °F    
Average Humidity 89    
Maximum Humidity 96    
Minimum Humidity 77    
Precipitation  
Precipitation 0.00 in - - ()
Sea Level Pressure  
Sea Level Pressure 29.83 in    
Wind  
Wind Speed 7 mph (South)    
Max Wind Speed 13 mph    
Max Gust Speed 18 mph    
Visibility 9 miles    
Events Rain    
Averages and records for this station are not official NWS values.
T = Trace of Precipitation, MM = Missing Value Source: NWS Daily Summary

Daily Weather History Graph

Daily Weather History Graph

Search for Another Location

Airport:

Trip Planner

Search our weather history database for the weather conditions in past years. The results will help you decide how hot, cold, wet, or windy it might be!

Date:

Astronomy

Aug. 06, 2013 Rise Set
Actual Time 6:29 AM EDT 9:04 PM EDT
Civil Twilight 5:55 AM EDT 9:38 PM EDT
Nautical Twilight 5:12 AM EDT 10:21 PM EDT
Astronomical Twilight 4:22 AM EDT 11:10 PM EDT
Moon 6:23 AM EDT (8/6) 8:33 PM EDT (8/6)
Length of Visible Light 15h 43m
Length of Day
14h 35m
Waning Crescent, 0% of the Moon is Illuminated
Aug 6
Waning Crescent
Aug 6
New
Aug 14
First Quarter
Aug 20
Full
Aug 28
Last Quarter

Hourly Weather History & Observations

Time (EDT) Temp. Dew Point Humidity Pressure Visibility Wind Dir Wind Speed Gust Speed Precip Events Conditions
12:14 AM 57.2 °F 55.4 °F 94% 29.88 in 10.0 mi North - - N/A   Overcast
12:35 AM 57.4 °F 55.4 °F 93% 29.88 in 10.0 mi North - - N/A   Overcast
12:55 AM 57.9 °F 55.8 °F 92% 29.87 in 10.0 mi North - - N/A   Overcast
1:14 AM 58.5 °F 56.3 °F 93% 29.87 in 10.0 mi South 4.6 mph - N/A   Overcast
1:35 AM 59.5 °F 56.7 °F 90% 29.87 in 10.0 mi South 8.1 mph - N/A   Overcast
1:55 AM 60.4 °F 56.7 °F 87% 29.87 in 10.0 mi South 6.9 mph - N/A   Overcast
2:14 AM 60.4 °F 56.8 °F 88% 29.87 in 10.0 mi South 4.6 mph - N/A   Overcast
2:35 AM 60.3 °F 57.2 °F 90% 29.86 in 10.0 mi South 6.9 mph - N/A   Overcast
2:55 AM 60.8 °F 57.2 °F 88% 29.86 in 10.0 mi North - - N/A   Overcast
3:14 AM 60.8 °F 57.2 °F 88% 29.86 in 10.0 mi North - - N/A   Overcast
3:35 AM 60.8 °F 57.4 °F 88% 29.85 in 10.0 mi South 6.9 mph - N/A   Overcast
3:55 AM 61.0 °F 57.6 °F 88% 29.84 in 10.0 mi North - - N/A   Overcast
4:15 AM 60.6 °F 57.9 °F 91% 29.83 in 10.0 mi North - - N/A   Overcast
4:35 AM 60.3 °F 58.1 °F 93% 29.83 in 10.0 mi South 4.6 mph - N/A   Overcast
4:54 AM 60.8 °F 59.0 °F 94% 29.82 in 10.0 mi South 8.1 mph - N/A   Overcast
5:15 AM 61.0 °F 59.4 °F 94% 29.82 in 10.0 mi North - - N/A   Overcast
5:35 AM 61.9 °F 60.4 °F 95% 29.83 in 10.0 mi North - - N/A   Overcast
5:54 AM 62.6 °F 61.2 °F 95% 29.84 in 7.0 mi SSW 6.9 mph - N/A   Overcast
6:15 AM 62.6 °F 61.3 °F 96% 29.84 in 5.0 mi South 8.1 mph - N/A   Overcast
6:35 AM 62.8 °F 61.7 °F 96% 29.84 in 7.0 mi SSW 8.1 mph - N/A   Overcast
6:54 AM 62.8 °F 61.3 °F 95% 29.84 in 7.0 mi SSW 6.9 mph - N/A   Overcast
7:15 AM 62.8 °F 61.7 °F 96% 29.83 in 7.0 mi South 8.1 mph - N/A   Overcast
7:35 AM 63.0 °F 61.7 °F 96% 29.84 in 7.0 mi North - - N/A   Overcast
7:54 AM 63.0 °F 61.7 °F 96% 29.84 in 10.0 mi South 8.1 mph - N/A   Overcast
8:15 AM 63.5 °F 61.7 °F 94% 29.83 in 10.0 mi South 8.1 mph 18.4 mph N/A   Overcast
8:34 AM 63.7 °F 61.9 °F 94% 29.83 in 10.0 mi SSW 6.9 mph - N/A   Overcast
8:55 AM 63.7 °F 61.9 °F 94% 29.84 in 10.0 mi SSW 6.9 mph - N/A   Overcast
9:15 AM 64.0 °F 61.9 °F 93% 29.84 in 10.0 mi North - - N/A   Overcast
9:34 AM 64.8 °F 62.4 °F 92% 29.84 in 10.0 mi SSW 9.2 mph - N/A   Overcast
9:55 AM 65.3 °F 62.8 °F 92% 29.85 in 10.0 mi SSW 9.2 mph - N/A   Overcast
10:14 AM 65.3 °F 62.6 °F 91% 29.85 in 10.0 mi SW 10.4 mph - N/A   Overcast
10:35 AM 66.6 °F 63.0 °F 88% 29.85 in 10.0 mi SSW 8.1 mph - N/A   Overcast
10:55 AM 67.1 °F 62.6 °F 85% 29.85 in 10.0 mi SSW 9.2 mph - N/A   Overcast
11:14 AM 67.1 °F 62.6 °F 85% 29.84 in 10.0 mi North - - N/A   Overcast
11:35 AM 66.9 °F 62.8 °F 87% 29.84 in 10.0 mi North - - N/A   Overcast
11:54 AM 68.0 °F 62.6 °F 83% 29.84 in 10.0 mi North - - N/A   Overcast
12:15 PM 68.0 °F 62.8 °F 83% 29.84 in 10.0 mi North - - N/A   Overcast
12:35 PM 69.4 °F 62.8 °F 79% 29.84 in 10.0 mi North - - N/A   Overcast
12:54 PM 69.3 °F 61.9 °F 77% 29.84 in 10.0 mi North - - N/A   Overcast
1:15 PM 68.0 °F 62.1 °F 81% 29.85 in 10.0 mi North - - N/A   Overcast
1:35 PM 67.5 °F 61.9 °F 82% 29.85 in 10.0 mi North - - N/A   Overcast
1:54 PM 69.1 °F 62.6 °F 80% 29.85 in 10.0 mi SSW 12.7 mph - N/A   Overcast
2:15 PM 67.3 °F 62.1 °F 83% 29.84 in 10.0 mi North - - N/A Rain Light Rain
2:35 PM 66.9 °F 62.4 °F 85% 29.84 in 10.0 mi SSW 8.1 mph - N/A Rain Light Rain
2:54 PM 66.2 °F 62.8 °F 89% 29.83 in 10.0 mi North - - N/A Rain Rain
3:15 PM 65.8 °F 63.1 °F 91% 29.83 in 10.0 mi North - - N/A Rain Light Rain
3:34 PM 68.4 °F 63.9 °F 85% 29.82 in 10.0 mi North - - N/A   Overcast
3:55 PM 68.4 °F 63.5 °F 84% 29.82 in 10.0 mi North - - N/A   Overcast
4:15 PM 69.3 °F 63.3 °F 81% 29.81 in 10.0 mi SSW 9.2 mph - N/A   Overcast
4:35 PM 68.0 °F 63.0 °F 84% 29.81 in 10.0 mi North - - N/A   Overcast
4:55 PM 68.7 °F 63.9 °F 84% 29.81 in 10.0 mi North - - N/A   Overcast
5:14 PM 68.0 °F 63.5 °F 85% 29.81 in 10.0 mi North - - N/A   Overcast
5:35 PM 68.0 °F 63.5 °F 85% 29.80 in 10.0 mi North - - N/A   Overcast
5:54 PM 68.0 °F 63.5 °F 85% 29.80 in 10.0 mi North - - N/A   Overcast
6:15 PM 69.4 °F 63.9 °F 82% 29.80 in 10.0 mi North - - N/A   Mostly Cloudy
6:35 PM 68.4 °F 63.5 °F 84% 29.80 in 10.0 mi North - - N/A   Mostly Cloudy
6:55 PM 69.8 °F 63.3 °F 80% 29.80 in 10.0 mi North - - N/A   Mostly Cloudy
7:15 PM 68.7 °F 62.8 °F 81% 29.80 in 10.0 mi South 9.2 mph - N/A   Overcast
7:34 PM 68.5 °F 62.6 °F 81% 29.79 in 10.0 mi North - - N/A   Overcast
7:55 PM 68.0 °F 62.8 °F 83% 29.79 in 10.0 mi North - - N/A   Overcast
8:15 PM 67.3 °F 61.9 °F 83% 29.80 in 10.0 mi North - - N/A   Overcast
8:34 PM 66.0 °F 61.9 °F 86% 29.79 in 10.0 mi North - - N/A   Mostly Cloudy
8:55 PM 65.3 °F 62.2 °F 90% 29.79 in 10.0 mi North - - N/A   Scattered Clouds
9:15 PM 65.3 °F 62.6 °F 91% 29.80 in 10.0 mi North - - N/A   Overcast
9:34 PM 65.1 °F 62.8 °F 92% 29.81 in 7.0 mi North - - N/A   Overcast
9:55 PM 64.8 °F 63.0 °F 94% 29.80 in 7.0 mi North - - N/A   Overcast
10:15 PM 64.8 °F 63.1 °F 94% 29.80 in 5.0 mi North - - N/A   Mostly Cloudy
10:35 PM 64.4 °F 63.1 °F 96% 29.79 in 5.0 mi SSE 9.2 mph - N/A   Scattered Clouds
10:55 PM 64.6 °F 63.5 °F 96% 29.78 in 5.0 mi North - - N/A   Scattered Clouds
11:14 PM 64.8 °F 63.5 °F 96% 29.78 in 5.0 mi South 8.1 mph - N/A Rain Light Rain
11:35 PM 64.8 °F 63.7 °F 96% 29.77 in 5.0 mi SSW 6.9 mph - N/A Rain Light Rain
11:54 PM 64.9 °F 63.9 °F 96% 29.78 in 5.0 mi North - - N/A   Overcast